This demonstration page uses our WeatherBlox Daily Observations layout. Learn more.

Left ArrowRight Arrow

34.74481, -87.66753

Hourly Observations for February 11, 2020

Temp ( °F °C ) Dew Point ( °F °C ) Humidity (%) Winds ( mph kmh ) Pressure ( in mb ) Visibility ( mi km ) Precip ( " mm )
12:20 am 00:20 Cloudy with Heavy Rain 59 15 57 13.9 93 93 WNW 3 6 30.00 1016 3 4 0.03 0.76
12:44 am 00:44 Cloudy with Heavy Rain 59 15 58 14.4 96 96 ENE 3 6 29.97 1015 3 5 0.06 1.52
12:53 am 00:53 Cloudy with Heavy Rain 58 14.4 57 13.9 97 97 E 5 7 29.94 1014 3 5 0.07 1.78
12:59 am 00:59 Cloudy with Heavy Rain 58 14.4 56 13.3 93 93 ESE 10 17 29.94 1014 2 3 0.01 0.25
1:09 am 01:09 Cloudy with Heavy Rain 59 15 58 14.4 96 96 N 3 6 29.95 1014 3 5 0.03 0.76
1:16 am 01:16 Cloudy with Rain 59 15 57 13.9 93 93 E 6 9 29.94 1014 4 6 0.04 1.02
1:42 am 01:42 Cloudy with Heavy Rain 59 15 57 13.9 93 93 E 3 6 29.93 1013 2 3 0.08 2.03
1:49 am 01:49 Cloudy with Heavy Rain 59 15 57 14 94 94 ESE 6 9 29.93 1013 3 5 0.09 2.29
1:50 am 01:50 Cloudy with Heavy Rain 59 15 57 13.9 93 93 ESE 6 9 29.92 1013 3 5 0.09 2.29
2:26 am 02:26 Cloudy with Heavy Rain 59 15 57 13.9 93 93 NNE 5 7 29.90 1012 3 4 0.06 1.52
2:50 am 02:50 Cloudy with Rain 59 15 57 14 94 94 E 7 11 29.86 1011 3 4 0.10 2.54
2:53 am 02:53 Cloudy with Rain 59 15 57 13.9 93 93 ENE 8 13 29.85 1011 3 5 0.11 2.79
3:06 am 03:06 Cloudy with Light Rain 59 15 57 13.9 93 93 E 6 9 29.88 1012 10 16 0.02 0.51
3:53 am 03:53 Cloudy with Rain 59 15 56 13.3 90 90 Calm 29.85 1011 3 5 0.10 2.54
4:07 am 04:07 Cloudy with Light Rain 59 15 57 13.9 93 93 N 6 9 29.86 1011 4 6 0.03 0.76
4:42 am 04:42 Mostly Cloudy with Rain 59 15 57 13.9 93 93 N 5 7 29.87 1011 3 4 0.09 2.29
4:50 am 04:50 Cloudy with Light Rain 59 15 57 14 94 94 N 5 7 29.88 1012 4 6 0.10 2.54
4:53 am 04:53 Cloudy with Light Rain 59 15 57 13.9 93 93 NNW 6 9 29.87 1012 5 8 0.10 2.54
5:04 am 05:04 Cloudy with Rain 59 15 57 13.9 93 93 NNW 8 13 29.89 1012 4 6 0.02 0.51
5:11 am 05:11 Cloudy with Light Rain 59 15 57 13.9 93 93 NW 7 11 29.90 1012 4 6 0.04 1.02
5:53 am 05:53 Cloudy 55 12.8 52 11.1 90 90 NW 13 20 29.93 1014 8 13 0.10 2.54
6:53 am 06:53 Cloudy with Mist and Fog 50 10 47 8.3 89 89 NNW 8 13 29.99 1016 4 6 0.08 2.03
7:04 am 07:04 Cloudy with Mist and Fog 50 10 47 8.3 89 89 NNW 6 9 30.01 1016 2 3 0.00 0.00
7:28 am 07:28 Cloudy with Mist and Fog 49 9.4 46 7.8 90 90 NNW 7 11 30.04 1017 4 6 0.00 0.00
7:53 am 07:53 Cloudy 49 9.4 45 7.2 86 86 NNW 8 13 30.04 1017 10 16 0.00 0.00
8:18 am 08:18 Cloudy with Mist and Fog 48 8.9 46 7.8 93 93 NW 9 15 30.07 1018 2 3 0.00 0.00
8:53 am 08:53 Cloudy with Mist and Fog 48 8.9 45 7.2 89 89 NNW 8 13 30.08 1019 2 2 0.00 0.00
9:35 am 09:35 Cloudy with Mist and Fog 48 8.9 45 7.2 89 89 NNW 8 13 30.10 1019 2 3 0.00 0.00
9:53 am 09:53 Cloudy with Mist and Fog 49 9.4 45 7.2 86 86 NNW 7 11 30.10 1019 5 8 0.00 0.00
10:53 am 10:53 Cloudy 50 10 45 7.2 83 83 N 7 11 30.12 1020 10 16 0.00 0.00
11:12 am 11:12 Cloudy 50 10 45 7.2 83 83 NNW 6 9 30.13 1020 10 16 0.00 0.00
11:53 am 11:53 Cloudy 50 10 45 7.2 83 83 NNW 9 15 30.11 1020 10 16 0.00 0.00
12:53 pm 12:53 Cloudy 50 10 44 6.7 80 80 N 5 7 30.09 1019 10 16 0.00 0.00
1:53 pm 13:53 Cloudy 49 9.4 44 6.7 83 83 N 8 13 30.08 1019 10 16 0.05 1.27
2:11 pm 14:11 Cloudy 48 8.9 43 6.1 83 83 NNW 8 13 30.10 1019 10 16 0.01 0.25
2:53 pm 14:53 Cloudy 49 9.4 43 6.1 80 80 N 7 11 30.11 1020 10 16 0.04 1.02
3:37 pm 15:37 Cloudy 49 9.4 43 6.1 80 80 NNE 5 7 30.13 1020 10 16 0.00 0.00
3:53 pm 15:53 Cloudy 49 9.4 43 6.1 80 80 Calm 30.14 1021 10 16 0.00 0.00
4:53 pm 16:53 Cloudy with Light Rain 49 9.4 44 6.7 83 83 Calm 30.16 1021 10 16 0.02 0.51
5:35 pm 17:35 Cloudy with Light Rain 49 9.4 45 7.2 86 86 NW 5 7 30.18 1022 8 13 0.03 0.76
5:53 pm 17:53 Cloudy with Light Rain 48 8.9 44 6.7 86 86 N 5 7 30.16 1021 10 16 0.04 1.02
6:40 pm 18:40 Cloudy with Light Rain 47 8.3 44 6.7 90 90 N 5 7 30.19 1022 8 13 0.02 0.51
6:53 pm 18:53 Cloudy with Light Rain 47 8.3 43 6.1 86 86 N 6 9 30.17 1022 9 14 0.02 0.51
7:00 pm 19:00 Mostly Cloudy with Light Rain 47 8.3 43 6.1 86 86 NNE 8 13 30.18 1022 9 14 0.00 0.00
7:20 pm 19:20 Mostly Cloudy 47 8.3 43 6.1 86 86 NE 5 7 30.18 1022 10 16 0.01 0.25
7:38 pm 19:38 Cloudy 47 8.3 43 6.1 86 86 NE 8 13 30.18 1022 8 13 0.01 0.25
7:53 pm 19:53 Mostly Cloudy with Light Rain 47 8.3 43 6.1 86 86 N 7 11 30.19 1022 10 16 0.01 0.25
8:33 pm 20:33 Mostly Cloudy 46 7.8 42 5.6 86 86 N 6 9 30.20 1023 10 16 0.01 0.25
8:44 pm 20:44 Mostly Cloudy 46 7.8 42 5.6 86 86 NNE 7 11 30.18 1022 10 16 0.01 0.25
8:53 pm 20:53 Cloudy 46 7.8 42 5.6 86 86 NNE 8 13 30.18 1022 9 14 0.01 0.25
9:03 pm 21:03 Cloudy 46 7.8 42 5.6 86 86 N 6 9 30.21 1023 10 16 0.00 0.00
9:39 pm 21:39 Cloudy 46 7.8 42 5.6 86 86 NE 5 7 30.20 1023 10 16 0.00 0.00
9:53 pm 21:53 Cloudy with Light Rain 46 7.8 41 5 83 83 NE 8 13 30.16 1022 8 13 0.00 0.00
10:53 pm 22:53 Cloudy 46 7.8 42 5.6 86 86 E 7 11 30.16 1021 8 13 0.00 0.00
11:53 pm 23:53 Cloudy with Light Rain 46 7.8 41 5 83 83 ENE 7 11 30.14 1021 7 11 0.00 0.00

Powered by AerisWeather